Location: Narrabri
(30.3170°S, 149.7830°E)
Time: 18:31:15
(UTC+11:00)

Vanguard 1 - All Passes

Search period start: 11 December 2017 00:00
Search period end: 21 December 2017 00:00
Orbit: 650 x 3833 km, 34.2° (Epoch: 10 December)

Date Brightness Start Highest point End Pass type
(mag) Time Alt. Az. Time Alt. Az. Time Alt. Az.
11 Dec - 00:18:28 10° W 00:26:01 80° S 00:40:43 10° ESE visible
11 Dec - 02:38:45 10° WSW 02:49:56 79° S 03:10:35 10° E visible
11 Dec - 05:00:02 10° WSW 05:15:33 71° NNW 05:38:54 10° NE visible
11 Dec - 07:24:27 10° W 07:41:27 35° NW 08:00:55 10° NNE daylight
11 Dec - 22:20:17 10° NW 22:25:49 59° NNE 22:35:26 10° ESE visible
12 Dec - 00:39:31 10° W 00:47:26 74° S 01:02:47 10° E visible
12 Dec - 02:59:53 10° WSW 03:11:32 85° SSE 03:32:45 10° ENE visible
12 Dec - 05:21:22 10° WSW 05:37:05 61° NNW 05:59:56 10° NE visible
12 Dec - 07:47:18 10° W 08:02:47 27° NW 08:20:00 10° N daylight
12 Dec - 20:24:40 10° N 20:27:29 15° NE 20:30:50 10° E visible
12 Dec - 22:41:01 10° WNW 22:46:45 78° NNE 22:57:07 10° ESE visible
13 Dec - 01:00:36 10° W 01:08:54 72° S 01:24:57 10° E visible
13 Dec - 03:20:58 10° WSW 03:33:06 87° NNW 03:54:43 10° ENE visible
13 Dec - 05:42:51 10° WSW 05:58:35 51° NNW 06:20:34 10° NE daylight
13 Dec - 08:11:19 10° W 08:24:10 19° NW 08:38:00 10° N daylight
13 Dec - 20:44:03 10° NNW 20:48:00 25° NE 20:53:20 10° E visible
13 Dec - 23:01:53 10° WNW 23:07:51 86° SSW 23:18:50 10° ESE visible
14 Dec - 01:21:40 10° WSW 01:30:22 74° S 01:47:11 10° E visible
14 Dec - 03:42:06 10° WSW 03:54:37 78° NNW 04:16:26 10° ENE visible
14 Dec - 06:04:36 10° W 06:20:03 41° NW 06:40:47 10° NNE daylight
14 Dec - 08:38:16 10° WNW 08:45:41 12° NW 08:53:21 10° NNW daylight
14 Dec - 21:04:11 10° NW 21:08:39 39° NE 21:15:11 10° E visible
14 Dec - 23:22:52 10° W 23:29:05 75° S 23:40:37 10° ESE visible
15 Dec - 01:42:44 10° WSW 01:51:50 78° SSE 02:09:24 10° E visible
15 Dec - 04:03:15 10° WSW 04:16:06 67° NNW 04:37:50 10° NE visible
15 Dec - 06:26:45 10° W 06:41:31 32° NW 07:00:28 10° NNE daylight
15 Dec - 21:24:41 10° NW 21:29:26 58° NNE 21:36:47 10° ESE visible
15 Dec - 23:43:55 10° W 23:50:23 70° S 00:02:30 10° E visible
16 Dec - 02:03:46 10° WSW 02:13:16 86° SSE 02:31:31 10° ENE visible
16 Dec - 04:24:31 10° WSW 04:37:35 57° NNW 04:58:52 10° NE visible
16 Dec - 06:49:35 10° W 07:03:01 24° NW 07:19:26 10° N daylight
16 Dec - 19:28:47 10° N 19:31:03 14° NE 19:33:31 10° ENE daylight
16 Dec - 21:45:26 10° WNW 21:50:21 80° NNE 21:58:17 10° ESE visible
17 Dec - 00:04:57 10° W 00:11:43 69° S 00:24:31 10° E visible
17 Dec - 02:24:48 10° WSW 02:34:40 85° NNW 02:53:27 10° ENE visible
17 Dec - 04:45:57 10° W 04:59:04 47° NNW 05:19:30 10° NNE visible
17 Dec - 07:13:44 10° WNW 07:24:36 17° NW 07:37:08 10° N daylight
17 Dec - 19:48:09 10° NNW 19:51:44 23° NE 19:55:54 10° E daylight
17 Dec - 22:06:22 10° WNW 22:11:24 82° SSW 22:19:49 10° ESE visible
18 Dec - 00:25:59 10° WSW 00:33:04 71° S 00:46:35 10° E visible
18 Dec - 02:45:50 10° WSW 02:56:03 74° NNW 03:15:07 10° ENE visible
18 Dec - 05:07:40 10° W 05:20:35 37° NNW 05:39:40 10° NNE visible
18 Dec - 07:41:59 10° NW 07:46:22 11° NW 07:50:56 10° NNW daylight
18 Dec - 20:08:20 10° NW 20:12:28 38° NNE 20:17:35 10° E daylight
18 Dec - 22:27:22 10° W 22:32:35 70° S 22:41:24 10° ESE visible
19 Dec - 00:46:59 10° WSW 00:54:23 77° SSE 01:08:39 10° E visible
19 Dec - 03:06:57 10° WSW 03:17:26 63° NNW 03:36:28 10° NE visible
19 Dec - 05:29:50 10° W 05:42:08 29° NW 05:59:14 10° NNE visible
19 Dec - 20:28:55 10° NW 20:33:17 59° NNE 20:39:01 10° ESE visible
19 Dec - 22:48:24 10° W 22:53:48 65° S 23:03:07 10° E visible
20 Dec - 01:07:58 10° WSW 01:15:40 86° SSE 01:30:38 10° ENE visible
20 Dec - 03:28:10 10° W 03:38:50 52° NNW 03:57:28 10° NE visible
20 Dec - 05:52:47 10° WNW 06:03:46 21° NW 06:17:58 10° N daylight
20 Dec - 18:32:09 10° N 18:34:43 15° NE 18:37:14 10° ENE daylight
20 Dec - 20:49:45 10° WNW 20:54:13 84° NNE 21:00:22 10° ESE visible
20 Dec - 23:09:26 10° WSW 23:15:03 65° S 23:24:55 10° E visible
